Overview Statistics Trail Chart Weather Telemetry Raw packets
 

This is the latest recevied weather packets stored in our database for station/object KH6HHG. If no packets are shown the sender has not sent any weather packets the latest 10 day(s).

<< 53 54 55 56 57 58 59 >>
Time Temp. Humidity Pressure Rain* Wind** Luminosity Snow
1777342746 22.22° C 82% 1011.1 hPa 0 mm - - -
1777342446 22.22° C 82% 1011.1 hPa 0 mm - - -
1777342146 22.78° C 81% 1011.1 hPa 0 mm - - -
1777341846 22.78° C 80% 1011 hPa 0 mm - - -
1777341548 22.78° C 80% 1011 hPa 0 mm - - -
1777341248 23.33° C 79% 1011 hPa 0 mm - - -
1777340948 23.33° C 78% 1011.1 hPa 0.25 mm - - -
1777340648 23.33° C 80% 1011.1 hPa 0.25 mm - - -
1777340348 22.78° C 81% 1011 hPa 0.25 mm - - -
1777340048 22.78° C 81% 1011.1 hPa 0.25 mm - - -
1777339747 22.78° C 81% 1011 hPa 0.25 mm - - -
1777339447 22.78° C 82% 1011 hPa 0.25 mm - - -
1777339147 22.22° C 83% 1011.1 hPa 0.25 mm - - -
1777338847 22.22° C 84% 1011.1 hPa 0.25 mm - - -
1777338547 22.78° C 85% 1011.2 hPa 0.25 mm - - -
1777338247 22.78° C 87% 1011.3 hPa 0.25 mm - - -
1777337947 22.78° C 85% 1011.4 hPa 0.25 mm - - -
1777337647 22.78° C 84% 1011.4 hPa 0.25 mm - - -
1777337347 22.78° C 84% 1011.4 hPa 0 mm - - -
1777337047 23.33° C 83% 1011.4 hPa 0 mm - - -
1777336747 23.33° C 81% 1011.5 hPa 0 mm - - -
1777336447 23.89° C 80% 1011.6 hPa 0 mm - - -
1777336147 23.89° C 77% 1011.6 hPa 0 mm - - -
1777335847 23.89° C 76% 1011.6 hPa 0 mm - - -
1777335547 24.44° C 76% 1011.6 hPa 0 mm - - -

* Rain latest hour (hover to see other rain measurements)
** Current wind speed in m/s (hover to see current wind gust speed)